Western Head, Nova Scotia

5:58 AM ADT on July 21, 2017 (GMT -0300)
Western Head

Weather History for CWWE - December, 2012

Change the Weather History Date:

Tuesday, December 11, 2012

  Actual Average Record
Temperature  
Mean Temperature 46 °F -  
Max Temperature 55 °F - - ()
Min Temperature 35 °F - - ()
Degree Days  
Heating Degree Days 20    
Moisture  
Dew Point 44 °F    
Average Humidity 88    
Maximum Humidity 100    
Minimum Humidity 69    
Precipitation  
Precipitation 0.09 in - - ()
Sea Level Pressure  
Sea Level Pressure 29.72 in    
Wind  
Wind Speed 11 mph ()    
Max Wind Speed 30 mph    
Max Gust Speed 37 mph    
T = Trace of Precipitation, MM = Missing Value Source: Averaged Metar Reports

Daily Weather History Graph

Daily Weather History Graph

Search for Another Location

Airport or City:

Trip Planner

Search our weather history database for the weather conditions in past years. The results will help you decide how hot, cold, wet, or windy it might be!

Date:

Astronomy

Dec. 11, 2012 Rise Set
Actual Time 7:43 AM AST 4:40 PM AST
Civil Twilight 7:10 AM AST 5:13 PM AST
Nautical Twilight 6:34 AM AST 5:50 PM AST
Astronomical Twilight 5:59 AM AST 6:25 PM AST
Moon 5:31 AM AST (12/11) 3:17 PM AST (12/11)
Length of Visible Light 10h 02m
Length of Day
8h 57m
Waning Crescent, 4% of the Moon is Illuminated
Dec 11
Waning Crescent
Dec 13
New
Dec 20
First Quarter
Dec 28
Full
Jan 4
Last Quarter

Hourly Weather History & Observations

Time (AST) Temp. Windchill Dew Point Humidity Pressure Visibility Wind Dir Wind Speed Gust Speed Precip Events Conditions
12:00 AM 54.0 °F - 53.4 °F 98% 29.56 in - SSW 29.9 mph 36.8 mph 0.09 in   Unknown
1:00 AM 53.8 °F - 53.2 °F 98% 29.54 in - SW 15.0 mph - 0.09 in   Unknown
2:00 AM 53 °F - 53 °F 98% 29.48 in - SSW 13.8 mph - -  
3:00 AM 53.6 °F - 53.2 °F 99% 29.46 in - SW 20.7 mph - N/A   Unknown
4:00 AM 53.2 °F - 52.9 °F 99% 29.49 in - SW 15.0 mph - N/A   Unknown
5:00 AM 54 °F - 54 °F 100% 29.52 in - WSW 17.3 mph - -  
5:00 AM 54.3 °F - 54.0 °F 99% 29.52 in - WSW 17.3 mph 24.2 mph N/A   Unknown
6:00 AM 54.5 °F - 54.0 °F 98% 29.54 in - WSW 11.5 mph - N/A   Unknown
7:00 AM 52.7 °F - 52.0 °F 97% 29.57 in - WSW 6.9 mph - N/A   Unknown
8:00 AM 52 °F - 51 °F 95% 29.60 in - West 8.1 mph - -  
8:00 AM 51.8 °F - 50.9 °F 97% 29.60 in - West 8.1 mph - N/A   Unknown
9:00 AM 50.9 °F - 49.5 °F 95% 29.65 in - West 8.1 mph - N/A   Unknown
10:00 AM 50.5 °F - 48.4 °F 92% 29.69 in - West 5.8 mph - N/A   Unknown
11:00 AM 47 °F - 44 °F 86% 29.72 in - WNW 9.2 mph - -  
11:00 AM 47.1 °F - 44.2 °F 90% 29.72 in - WNW 9.2 mph - N/A   Unknown
12:00 PM 47.8 °F - 42.3 °F 81% 29.70 in - WNW 6.9 mph - N/A   Unknown
1:00 PM 46.2 °F 42.7 °F 40.3 °F 80% 29.72 in - WNW 6.9 mph - N/A   Unknown
2:00 PM 46 °F - 40 °F 73% 29.75 in - WNW 6.9 mph - -  
2:00 PM 45.9 °F 42.3 °F 40.1 °F 80% 29.75 in - WNW 6.9 mph - N/A   Unknown
3:00 PM 46.8 °F - 39.9 °F 77% 29.75 in - WNW 6.9 mph - N/A   Unknown
4:00 PM 44.1 °F 39.5 °F 36.7 °F 75% 29.79 in - NW 8.1 mph - N/A   Unknown
5:00 PM 43 °F - 36 °F 69% 29.84 in - WNW 8.1 mph - -  
5:00 PM 43.2 °F 38.4 °F 36.3 °F 77% 29.84 in - WNW 8.1 mph - N/A   Unknown
6:00 PM 42.4 °F 38.1 °F 36.7 °F 80% 29.87 in - WNW 6.9 mph - N/A   Unknown
7:00 PM 41.7 °F 38.8 °F 36.5 °F 82% 29.89 in - West 4.6 mph - N/A   Unknown
8:00 PM 39 °F - 35 °F 80% 29.92 in - NW 5.8 mph - -  
8:00 PM 39.0 °F 34.8 °F 35.1 °F 86% 29.92 in - NW 5.8 mph - N/A   Unknown
9:00 PM 38.1 °F 32.9 °F 34.7 °F 87% 29.94 in - NW 6.9 mph - N/A   Unknown
10:00 PM 37.4 °F 32.1 °F 33.1 °F 84% 29.96 in - NW 6.9 mph - N/A   Unknown
11:00 PM 36 °F - 33 °F 82% 29.98 in - NNW 4.6 mph - -  
11:00 PM 35.8 °F 31.9 °F 31.5 °F 84% 29.98 in - NNW 4.6 mph - N/A   Unknown